[[{"header":{"parameterUnit":"m.s-1","parameterCategory":1,"la1":30.2991,"la2":30.254,"lo1":-89.0895,"lo2":-89.0444,"dy":0.0017,"dx":0.0017,"nx":28,"ny":28,"refTime":"2024-03-04T03:00:00:Z","depth":0,"parameterNumber":2,"parameterNumberName":"U-component_of_WINDS"},"data":[0,0,0,0,0,0,0,0,0,0,0,0,0,0,0,0,0,0,0,0,0,0,0,0,0,0,0,0,0,0,0,0,0,0,0,0,0,0,0,0,0,0,0,0,0,0,0,0,0,0,0,0,0,0,0,0,0,0,-5.9258,-5.9259,0,-5.9338,-5.9339,-5.934,-5.9259,-5.9255,-5.9252,-5.9249,-5.9331,-5.9336,-5.9341,0,0,0,0,0,0,0,0,0,0,0,0,0,-5.9036,-5.904,-5.9258,-5.9259,-5.926,-5.9338,-5.9339,-5.934,-5.9259,-5.9255,-5.9252,-5.9248,-5.9329,-5.9335,-5.9341,0,0,0,0,0,0,0,0,0,0,0,0,0,-5.9126,-5.9042,-5.9258,-5.9229,-5.9227,-5.9338,-5.9339,-5.934,-5.926,-5.9255,-5.9251,-5.9246,-5.9327,-5.9334,-5.9342,-5.9485,0,0,-5.9365,-5.9369,0,0,0,0,0,0,0,0,-5.9121,-5.9134,-5.9232,-5.9231,-5.9229,-5.9284,-5.929,-5.9389,-5.9261,-5.9248,-5.9249,-5.9244,-5.9319,-5.9327,-5.9352,-5.9488,-5.9492,-5.9366,-5.9371,-5.9374,-5.9376,0,0,0,0,0,0,0,-5.9115,-5.913,-5.9289,-5.9234,-5.9232,-5.9212,-5.922,-5.9309,-5.9309,-5.9248,-5.9243,-5.9253,-5.9317,-5.9345,-5.9353,-5.9493,-5.9366,-5.9373,-5.9377,-5.938,-5.9753,-5.9758,0,0,0,0,0,0,-5.9112,-5.9125,-5.9287,-5.9292,-5.9162,-5.922,-5.9229,-5.9271,-5.9308,-5.9309,-5.9257,-5.9249,-5.9334,-5.9345,-5.9356,-5.9526,-5.9374,-5.9381,-5.9386,-5.9748,-5.9754,-5.976,0,0,0,0,0,0,-5.9107,-5.9127,-5.9284,-5.9207,-5.9226,-5.9229,-5.9277,-5.9275,-5.9303,-5.9314,-5.9314,-5.9286,-5.9331,-5.9345,-5.9454,-5.9528,-5.9385,-5.9392,-5.9741,-5.975,-5.9757,-5.9868,0,0,0,0,0,0,-5.9101,-5.9126,-5.9179,-5.9209,-5.923,-5.938,-5.9282,-5.928,-5.9316,-5.9307,-5.9341,-5.9342,-5.9328,-5.9443,-5.9461,-5.9536,-5.9398,-5.9735,-5.9745,-5.9754,-5.9857,-5.9878,-5.9896,0,0,0,0,0,-5.9093,-5.9206,-5.9182,-5.9202,-5.9297,-5.9384,-5.9396,-5.9378,-5.9323,-5.9377,-5.9385,-5.9341,-5.9518,-5.9455,-5.9475,-5.9553,-5.973,-5.9742,-5.9754,-5.9848,-5.9874,-5.9896,0,0,0,0,0,0,-5.9183,-5.9209,-5.9183,-5.9309,-5.9345,-5.937,-5.9438,-5.9406,-5.9458,-5.9446,-5.9422,-5.9431,-5.9546,-5.956,-5.949,-5.9694,-5.9615,-5.9631,-5.968,-5.9704,-5.9724,-5.9717,-5.9404,0,0,0,0,0,-5.9218,-5.9287,-5.9306,-5.9415,-5.9435,-5.9434,-5.9471,-5.9455,-5.9491,-5.9505,-5.9521,-5.9558,-5.9622,-5.9664,-5.9723,-5.986,-5.9867,-5.9924,-5.9944,-5.996,-5.9974,-6.0048,-6.0074,-5.9799,-5.9799,-5.9799,0,0,-5.929,-5.9313,-5.9357,-5.9434,-5.946,-5.9532,-5.9447,-5.9526,-5.9579,-5.9517,-5.9621,-5.9635,-5.9674,-5.9798,-5.9853,-5.9814,-6.0052,-5.9975,-5.9987,-5.9993,-6.0063,-6.0089,-6.0113,-5.9807,-5.9805,-5.9804,0,0,-5.9457,-5.9482,-5.9576,-5.9605,-5.9646,-5.9646,-5.9669,-5.97,-5.9707,-5.9811,-5.9767,-5.983,-5.994,-5.9971,-6.0001,-6.0186,-6.0147,-6.0206,-6.0307,-6.038,-6.0402,-6.0421,-6.0487,-6.0511,-6.022,-6.0221,-6.0221,0,-5.9541,-5.9648,-5.9629,-5.9712,-5.9748,-5.9697,-5.9793,-5.9822,-5.9881,-5.9907,-5.9862,-6.0001,-6.0024,-6.0155,-6.0201,-6.0227,-6.0253,-6.02,-6.04,-6.0419,-6.0437,-6.05,-6.0524,-6.0227,-6.0227,-6.0226,-6.0225,0,-5.9749,-5.9824,-5.9896,-5.9955,-5.9999,-6.0088,-6.0084,-6.0131,-6.0112,-6.0117,-6.0225,-6.0251,-6.0316,-6.0346,-6.0328,-6.0476,-6.045,-6.0404,-6.0323,-6.047,-6.0529,-6.0553,-6.0237,-6.0235,-6.0233,-6.0231,0,0,-5.9971,-6.0022,-6.0049,-6.0076,-6.012,-6.0178,-6.0266,-6.0331,-6.0372,-6.0416,-6.0489,-6.0586,-6.0544,-6.0579,-6.0564,-6.0629,-6.0774,-6.0574,-6.0575,-6.061,-6.0939,-6.0973,-6.1001,-6.075,-6.0755,-6.0758,-6.0936,0,-6.0139,-6.0292,-6.028,-6.0425,-6.0495,-6.045,-6.0528,-6.0564,-6.0571,-6.0632,-6.0641,-6.071,-6.0649,-6.067,-6.0732,-6.0743,-6.084,-6.073,-6.0818,-6.0822,-6.0808,-6.1031,-6.1066,-6.1232,-6.0959,-6.0963,-6.0965,0,-6.0355,-6.0408,-6.056,-6.0597,-6.0626,-6.0695,-6.0755,-6.0813,-6.0854,-6.0856,-6.0897,-6.0872,-6.0962,-6.0882,-6.1006,-6.0932,-6.0968,-6.098,-6.0986,-6.0991,-6.0901,-6.1042,-6.1285,-6.131,-6.1001,-6.0998,-6.0996,0,-6.0502,-6.0611,-6.0717,-6.0742,-6.0787,-6.0837,-6.0858,-6.0894,-6.0935,-6.0988,-6.1014,-6.1077,-6.111,-6.116,-6.1153,-6.1095,-6.1281,-6.1199,-6.1284,-6.1284,-6.1322,-6.132,-6.1573,-6.1349,-6.1348,-6.1348,-6.1347,0,-6.069,-6.0785,-6.0783,-6.0848,-6.0954,-6.0941,-6.1046,-6.1061,-6.1095,-6.1163,-6.1129,-6.1193,-6.1181,-6.1246,-6.1242,-6.1346,-6.1362,-6.1365,-6.1363,-6.1368,-6.1367,-6.1389,-6.1377,-6.1355,-6.1353,-6.1352,-6.1351,0,-6.0869,-6.0873,-6.0985,-6.102,-6.1031,-6.1108,-6.1138,-6.12,-6.1206,-6.1293,-6.1312,-6.1323,-6.1397,-6.1397,-6.1482,-6.1479,-6.1607,-6.1592,-6.1593,-6.1589,-6.1674,-6.1666,-6.1949,-6.1985,-6.1739,-6.1741,-6.1743,0,-6.0988,-6.1061,-6.1105,-6.1148,-6.1173,-6.1243,-6.1285,-6.1276,-6.1321,-6.1376,-6.1431,-6.1504,-6.156,-6.1682,-6.1697,-6.1763,-6.1748,-6.1843,-6.1758,-6.1761,-6.1749,-6.1744,-6.1751,-6.1859,-6.1862,-6.1864,-6.1866,0,-6.1199,-6.1198,-6.126,-6.1324,-6.1376,-6.1426,-6.1471,-6.1509,-6.1505,-6.1558,-6.1635,-6.1679,-6.1768,-6.184,-6.1904,-6.1926,-6.1896,-6.1894,-6.1917,-6.1921,-6.1918,-6.192,-6.1637,-6.1886,-6.1884,-6.1883,-6.1882,-6.1881,-6.1351,-6.1414,-6.1456,-6.1527,-6.1561,-6.1606,-6.1666,-6.1682,-6.1746,-6.1817,-6.1809,-6.1895,-6.1937,-6.202,-6.2049,-6.2116,-6.2083,-6.2116,-6.2124,-6.2132,-6.2141,-6.191,-6.2128,-6.2127,-6.2127,-6.2126,-6.2126,0,-6.1559,-6.1585,-6.1651,-6.1717,-6.1774,-6.1743,-6.1793,-6.1843,-6.1919,-6.1961,-6.2019,-6.2109,-6.218,-6.2202,-6.2271,-6.2321,-6.2309,-6.2339,-6.2334,-6.234,-6.2167,-6.214,-6.2348,-6.2348,-6.2348,-6.2348,-6.2348,-6.2348,-6.1674,-6.1779,-6.1784,-6.1907,-6.1932,-6.2016,-6.2048,-6.209,-6.2123,-6.2225,-6.2285,-6.23,-6.2335,-6.2407,-6.2471,-6.2476,-6.2502,-6.2538,-6.2537,-6.2375,-6.2352,-6.2331,-6.2305,-6.2544,-6.2545,-6.2705,-6.2706,-6.2707]},{"header":{"parameterUnit":"m.s-1","parameterCategory":1,"la1":30.2991,"la2":30.254,"lo1":-89.0895,"lo2":-89.0444,"dy":0.0017,"dx":0.0017,"nx":28,"ny":28,"refTime":"2024-03-04T03:00:00:Z","depth":0,"parameterNumber":3,"parameterNumberName":"V-component_of_WINDS"},"data":[0,0,0,0,0,0,0,0,0,0,0,0,0,0,0,0,0,0,0,0,0,0,0,0,0,0,0,0,0,0,0,0,0,0,0,0,0,0,0,0,0,0,0,0,0,0,0,0,0,0,0,0,0,0,0,0,0,0,1.2977,1.2977,0,1.3008,1.3009,1.3009,1.304,1.304,1.3041,1.3041,1.307,1.3071,1.3071,0,0,0,0,0,0,0,0,0,0,0,0,0,1.2943,1.2943,1.2977,1.2977,1.2977,1.3008,1.3009,1.3009,1.304,1.304,1.3041,1.3041,1.307,1.3071,1.3071,0,0,0,0,0,0,0,0,0,0,0,0,0,1.2964,1.2943,1.2977,1.2997,1.2999,1.3008,1.3009,1.3009,1.304,1.304,1.3041,1.3042,1.307,1.3071,1.3071,1.3062,0,0,1.3073,1.3073,0,0,0,0,0,0,0,0,1.2963,1.2965,1.2993,1.2995,1.2998,1.3021,1.3007,1.3027,1.304,1.3024,1.3041,1.3042,1.3053,1.3055,1.306,1.3064,1.3065,1.3073,1.3073,1.3074,1.3074,0,0,0,0,0,0,0,1.2961,1.2964,1.2989,1.2994,1.2996,1.3004,1.3008,1.3011,1.3035,1.3025,1.3028,1.3031,1.3054,1.3059,1.306,1.3065,1.3073,1.3073,1.3074,1.3074,1.3068,1.3067,0,0,0,0,0,0,1.2957,1.2963,1.2988,1.299,1.2982,1.3004,1.3008,1.3013,1.3035,1.3039,1.3031,1.3033,1.3058,1.306,1.3062,1.3055,1.3074,1.3074,1.3074,1.3068,1.3068,1.3067,0,0,0,0,0,0,1.2956,1.2959,1.2987,1.2977,1.2981,1.3004,1.3009,1.3013,1.3018,1.3039,1.3043,1.3031,1.3058,1.3061,1.3063,1.3057,1.3074,1.3075,1.3069,1.3068,1.3067,1.3041,0,0,0,0,0,0,1.2955,1.2958,1.2955,1.2977,1.2982,1.2988,1.3008,1.3013,1.3019,1.3022,1.304,1.3044,1.3059,1.3062,1.3064,1.3058,1.3075,1.307,1.3069,1.3068,1.3042,1.3039,1.3037,0,0,0,0,0,1.2954,1.2945,1.2955,1.2957,1.2978,1.2987,1.299,1.3008,1.3018,1.3015,1.303,1.3043,1.3057,1.3062,1.3064,1.3058,1.307,1.3069,1.3068,1.3044,1.304,1.3037,0,0,0,0,0,0,1.2919,1.2948,1.2959,1.2957,1.297,1.2992,1.2989,1.3003,1.3012,1.3014,1.3036,1.304,1.304,1.3049,1.3054,1.3053,1.3066,1.3065,1.3047,1.3043,1.304,1.3038,1.3076,0,0,0,0,0,1.2912,1.2917,1.2942,1.2937,1.2944,1.2965,1.297,1.2984,1.2997,1.3002,1.3016,1.3028,1.3036,1.304,1.3048,1.3044,1.305,1.3042,1.3039,1.3036,1.3035,1.3037,1.3034,1.3063,1.3063,1.3063,0,0,1.2895,1.2912,1.2913,1.2931,1.2942,1.2948,1.2969,1.2973,1.2978,1.3002,1.3006,1.3017,1.3032,1.3033,1.3033,1.304,1.3029,1.3035,1.3033,1.3033,1.3035,1.3033,1.303,1.3063,1.3063,1.3063,0,0,1.2869,1.2881,1.2881,1.2893,1.2911,1.2927,1.2926,1.2948,1.2957,1.2962,1.2981,1.2987,1.2999,1.301,1.3017,1.3,1.3013,1.3001,1.2986,1.2988,1.2985,1.2983,1.2979,1.2977,1.3,1.3,1.3,0,1.2846,1.2856,1.2878,1.2883,1.2891,1.2916,1.2916,1.2926,1.2945,1.2951,1.2959,1.2977,1.2988,1.2993,1.2989,1.2993,1.2995,1.2999,1.2984,1.2982,1.2981,1.2977,1.2975,1.2999,1.2999,1.2999,1.2999,0,1.2828,1.2835,1.2833,1.2853,1.2861,1.2863,1.2886,1.2892,1.2906,1.292,1.2927,1.2942,1.2955,1.2957,1.2969,1.2965,1.2969,1.298,1.2993,1.2976,1.2973,1.2972,1.2997,1.2997,1.2998,1.2998,0,0,1.2778,1.2815,1.2814,1.2825,1.2849,1.2854,1.2859,1.2873,1.2879,1.2892,1.2897,1.2908,1.292,1.2928,1.2943,1.2944,1.2932,1.2956,1.2956,1.2952,1.293,1.2922,1.292,1.2942,1.2942,1.2942,1.293,0,1.2757,1.2767,1.279,1.2793,1.2801,1.2827,1.2831,1.2846,1.2861,1.287,1.2886,1.2895,1.2909,1.2914,1.2917,1.2933,1.2928,1.2934,1.2947,1.2947,1.2943,1.2918,1.2909,1.2896,1.2928,1.2928,1.2928,0,1.2733,1.2748,1.2752,1.278,1.2784,1.2787,1.2804,1.2812,1.2831,1.2842,1.2853,1.287,1.2877,1.289,1.2901,1.2905,1.2912,1.2921,1.2921,1.2923,1.2937,1.292,1.2893,1.2891,1.2926,1.2926,1.2926,0,1.2698,1.2719,1.2726,1.2734,1.2765,1.2768,1.2781,1.28,1.2809,1.2824,1.283,1.2845,1.2853,1.2864,1.2885,1.2893,1.2895,1.2909,1.2904,1.2904,1.2903,1.2903,1.2877,1.2907,1.2907,1.2907,1.2907,0,1.2672,1.2675,1.2711,1.2715,1.272,1.2746,1.2749,1.2764,1.2782,1.279,1.2813,1.282,1.2847,1.2857,1.2874,1.2882,1.2885,1.2894,1.2898,1.2892,1.2891,1.2897,1.2899,1.2906,1.2906,1.2906,1.2906,0,1.2634,1.2658,1.2668,1.2698,1.2706,1.2708,1.2734,1.2739,1.2757,1.2767,1.277,1.2797,1.2811,1.2834,1.2853,1.2864,1.287,1.2876,1.2864,1.2866,1.2862,1.2862,1.2839,1.2838,1.2867,1.2867,1.2866,0,1.2616,1.2619,1.2651,1.2659,1.2672,1.2683,1.2694,1.272,1.273,1.2754,1.2757,1.2773,1.2787,1.2808,1.2829,1.2845,1.2853,1.2844,1.2855,1.285,1.2854,1.2854,1.2856,1.2841,1.2841,1.284,1.284,0,1.2582,1.2595,1.2609,1.2629,1.2641,1.2657,1.2674,1.2679,1.271,1.2719,1.2735,1.2746,1.2769,1.2785,1.2804,1.2817,1.2834,1.2837,1.2837,1.2831,1.2824,1.2829,1.2857,1.2837,1.2837,1.2837,1.2837,1.2837,1.2554,1.256,1.2584,1.26,1.2617,1.2633,1.2641,1.2661,1.2675,1.2696,1.2711,1.2726,1.2748,1.2776,1.2789,1.2802,1.2809,1.2808,1.2808,1.2808,1.2807,1.2822,1.2805,1.2805,1.2805,1.2805,1.2805,0,1.2523,1.2541,1.2556,1.2581,1.2594,1.2611,1.2632,1.2641,1.2655,1.2675,1.269,1.2709,1.2726,1.275,1.2768,1.2774,1.2782,1.2778,1.2778,1.2781,1.2798,1.2797,1.2771,1.2771,1.2771,1.2771,1.2771,1.2771,1.2508,1.2519,1.2536,1.2556,1.2574,1.259,1.2601,1.2617,1.2633,1.2654,1.2669,1.2686,1.2708,1.2729,1.2746,1.2752,1.2758,1.2752,1.2761,1.2777,1.278,1.2783,1.2782,1.2753,1.2753,1.2743,1.2743,1.2743]}]]